Weather History for KMFR - January, 2013

Change the Weather History Date:

Saturday, January 26, 2013

  Actual Average Record
Temperature  
Mean Temperature 42 °F 41 °F  
Max Temperature 48 °F 50 °F 62 °F (1961)
Min Temperature 35 °F 33 °F 13 °F (1963)
Degree Days  
Heating Degree Days 23 24  
Month to date heating degree days 746 651  
Since 1 July heating degree days 2298 2417  
Cooling Degree Days 0 0  
Month to date cooling degree days 0 0  
Year to date cooling degree days 0 0  
Moisture  
Dew Point 36 °F    
Average Humidity 76    
Maximum Humidity 92    
Minimum Humidity 60    
Precipitation  
Precipitation 0.10 in 0.07 in 1.22 in (1970)
Month to date precipitation 0.80 2.11  
Year to date precipitation 0.80 2.11  
Snow  
Snow 0.00 in 0.00 in - ()
Month to date snowfall 0.5 1.1  
Since 1 July snowfall 1.7 2.8  
Snow Depth 0.00 in    
Sea Level Pressure  
Sea Level Pressure 30.04 in    
Wind  
Wind Speed 2 mph (NNW)    
Max Wind Speed 21 mph    
Max Gust Speed 25 mph    
Visibility 9 miles    
Events Rain    
T = Trace of Precipitation, MM = Missing Value Source: NWS Daily Summary

Daily Weather History Graph

Daily Weather History Graph

Search for Another Location

Airport or City:

Trip Planner

Search our weather history database for the weather conditions in past years. The results will help you decide how hot, cold, wet, or windy it might be!

Date:

Astronomy

Jan. 26, 2013 Rise Set
Actual Time 7:30 AM PST 5:18 PM PST
Civil Twilight 7:00 AM PST 5:48 PM PST
Nautical Twilight 6:26 AM PST 6:22 PM PST
Astronomical Twilight 5:53 AM PST 6:55 PM PST
Moon 5:19 PM PST (1/26) 6:51 AM PST (1/26)
Length of Visible Light 10h 48m
Length of Day
9h 47m
Full, 100% of the Moon is Illuminated
Jan 26
Full
Jan 26
Full
Feb 3
Last Quarter
Feb 9
New
Feb 17
First Quarter

Hourly Weather History & Observations

Time (PST) Temp. Windchill Dew Point Humidity Pressure Visibility Wind Dir Wind Speed Gust Speed Precip Events Conditions
12:00 AM 46.4 °F 44.3 °F 44.6 °F 93% 29.99 in 2.0 mi NNW 4.6 mph - 0.00 in Rain Light Rain
12:06 AM 46.4 °F 45.2 °F 44.6 °F 93% 29.99 in 3.0 mi NNW 3.5 mph - 0.00 in Rain Light Rain
12:53 AM 46.9 °F - 43.0 °F 86% 30.00 in 10.0 mi NNW 5.8 mph - 0.01 in   Overcast
1:18 AM 46.4 °F 42.9 °F 42.8 °F 87% 30.00 in 7.0 mi SSW 6.9 mph - 0.03 in Rain Light Rain
1:44 AM 46.4 °F - 42.8 °F 87% 30.00 in 10.0 mi Calm Calm - 0.04 in Rain Light Rain
1:53 AM 46.0 °F 44.8 °F 42.1 °F 86% 30.01 in 10.0 mi ESE 3.5 mph - 0.04 in   Overcast
2:53 AM 44.1 °F 39.5 °F 34.0 °F 68% 30.02 in 10.0 mi NNW 8.1 mph - N/A   Overcast
3:53 AM 42.1 °F - 34.0 °F 73% 30.02 in 10.0 mi Calm Calm - N/A   Mostly Cloudy
4:53 AM 37.0 °F - 34.0 °F 89% 30.02 in 10.0 mi Calm Calm - N/A   Clear
5:53 AM 37.0 °F - 34.0 °F 89% 30.02 in 10.0 mi Calm Calm - N/A   Overcast
6:53 AM 37.9 °F - 34.0 °F 86% 30.04 in 10.0 mi Calm Calm - N/A   Overcast
7:53 AM 37.9 °F 35.5 °F 35.1 °F 89% 30.05 in 10.0 mi WSW 3.5 mph - N/A   Overcast
8:53 AM 39.0 °F - 35.1 °F 86% 30.06 in 10.0 mi Calm Calm - 0.01 in Rain Light Rain
9:53 AM 39.9 °F - 37.0 °F 89% 30.06 in 10.0 mi Calm Calm - 0.01 in   Overcast
10:53 AM 42.1 °F 40.2 °F 36.0 °F 79% 30.07 in 10.0 mi NNE 3.5 mph - N/A   Mostly Cloudy
11:53 AM 45.0 °F 41.8 °F 36.0 °F 71% 30.05 in 10.0 mi North 5.8 mph - N/A   Mostly Cloudy
12:53 PM 46.0 °F - 35.1 °F 66% 30.02 in 10.0 mi Calm Calm - N/A   Mostly Cloudy
1:53 PM 46.9 °F - 33.1 °F 59% 30.00 in 10.0 mi Calm Calm - N/A   Mostly Cloudy
2:53 PM 46.9 °F - 33.1 °F 59% 30.00 in 10.0 mi Calm Calm - N/A   Mostly Cloudy
3:45 PM 41.0 °F 31.9 °F 35.6 °F 81% 30.00 in 4.0 mi NNW 19.6 mph 25.3 mph 0.00 in Rain Light Rain
3:53 PM 42.1 °F 38.4 °F 35.1 °F 76% 30.02 in 6.0 mi NW 5.8 mph - 0.03 in Rain Light Rain
4:53 PM 42.1 °F - 36.0 °F 79% 30.02 in 10.0 mi Calm Calm - 0.00 in   Mostly Cloudy
5:53 PM 39.9 °F - 35.1 °F 83% 30.05 in 10.0 mi Calm Calm - 0.00 in   Scattered Clouds
6:53 PM 39.9 °F - 35.1 °F 83% 30.07 in 10.0 mi Calm Calm - N/A   Mostly Cloudy
7:53 PM 39.0 °F - 35.1 °F 86% 30.09 in 10.0 mi Calm Calm - N/A   Partly Cloudy
8:53 PM 36.0 °F - 34.0 °F 93% 30.10 in 10.0 mi Calm Calm - N/A   Scattered Clouds
9:53 PM 37.0 °F - 33.1 °F 86% 30.11 in 10.0 mi Calm Calm - N/A   Overcast
10:53 PM 37.0 °F - 33.1 °F 86% 30.13 in 10.0 mi Calm Calm - N/A   Overcast
11:53 PM 36.0 °F - 33.1 °F 89% 30.13 in 10.0 mi Calm Calm - N/A   Overcast